sat.trackr.live / text

‹ back to catalog

TIANQI-16

NORAD 64058 · 2025-105A

PAYLOAD ACTIVE UNKNOWN

§ Identity

Operator
Country
PRC
Launch date
2025-05-19
Launch site
YSLA
Launch vehicle
Mass (kg)
RCS (m²)

External: N2YO · Heavens-Above · Gunter

§ Orbital elements

Epoch: 2026-05-25T04:55:36.554016Z

Period
102.92 min
Inclination
44.9823°
Eccentricity
0.0012671
Mean motion
13.99144579 rev/d
Perigee alt
887.5 km
Apogee alt
906.0 km
Semi-major
7,274.9 km
B*
3.4575e-5
RAAN
124.6205°
Arg perigee
272.8059°
Mean anomaly
87.1323°
Rev number
5,197

§ Raw data

TIANQI-161 64058U 25105A   26145.20528419 -.00000078  00000+0  34575-4 0  99982 64058  44.9823 124.6205 0012671 272.8059  87.1323 13.99144579 51973

JSON: /api/v1/satellites/64058 · /tle

For live sub-satellite position, see the globe view (requires WebGL).

§ Visibility from observer

Set your observer location to see the next 7 days of passes ≥ 10°. The values pass through the URL so the page stays shareable.

No JS? Fill the form by hand. The geolocation button needs JavaScript.